Wind_Speed
3 3 2 4 5 7 9 6 4 6 9 9 7 5 5 4 3 4 4 2 4 4 3 3 3 3 3 3 3 2 2 3 3 4 4 4 4 4 4 4 6 6 6 10 15 17 20 20 20 20 19 19 18 16 14 14 14 14 15 15 15 14 14 14 14 15 15 15 14 13 15 17 14 13 12 12 12 12 14 14 15 14 14 16 19 19
3 2 5 7 9 9 8 8 9 9 9 7 7 6 4 3 4 5 6 3 0 2 2 3 5 2 3 3 3 2 4 4 5 6 5 6 5 4 5 6 7 6 6 10 13 16 20 19 18 18 17 16 16 14 14 14 15 15 15 15 14 13 14 15 15 15 15 15 14 12 12 12 11 11 11 10 10 11 12 13 14 16 15 15 17 17
2 4 9 9 7 5 7 11 12 10 8 6 5 5 5 6 6 3 6 5 1 1 2 3 5 1 3 2 3 4 4 4 6 6 6 6 6 5 6 6 7 7 6 7 9 14 18 18 17 16 15 15 15 14 14 14 14 14 15 16 15 14 13 14 15 15 14 13 12 11 9 9 9 9 10 10 11 11 12 13 13 15 15 15 15 16
0 6 10 8 5 6 8 11 11 8 5 4 5 5 5 7 6 2 3 6 2 2 3 4 4 1 3 3 3 5 5 4 4 6 5 5 6 5 7 8 9 8 7 7 7 10 14 16 16 16 16 17 16 15 14 13 13 12 13 14 14 14 14 13 13 14 13 12 11 9 7 8 8 8 8 10 11 12 13 14 14 15 16 14 14 15
5 8 6 3 6 8 8 9 10 7 3 3 4 5 7 6 5 5 5 6 4 4 4 6 4 3 3 2 4 4 5 4 5 6 5 5 4 4 6 8 8 8 8 8 7 8 12 15 15 16 17 18 17 15 14 14 14 13 12 12 12 13 13 13 13 11 9 9 10 10 8 7 8 9 9 10 12 13 14 14 14 15 16 14 14 15
8 9 4 3 6 10 9 7 9 8 5 3 3 6 10 9 9 11 10 7 5 2 3 4 3 3 4 3 5 4 4 5 5 6 6 5 4 5 6 7 7 7 8 9 9 10 13 15 16 16 16 17 17 16 14 14 14 13 12 11 11 11 12 12 12 12 10 8 10 12 12 9 9 10 10 11 13 14 14 13 13 14 15 14 14 15
5 4 1 4 6 11 10 6 9 9 6 3 5 8 11 10 12 13 11 6 3 3 6 4 3 1 3 5 7 4 4 5 5 7 8 6 5 6 7 6 7 8 7 8 9 10 14 15 15 15 15 16 18 16 14 14 13 13 12 11 10 10 10 11 10 11 12 12 11 12 13 11 11 11 11 10 12 13 13 13 13 13 14 14 14 15
4 4 6 3 4 7 6 5 8 10 7 3 6 11 12 12 13 12 9 5 3 4 4 3 3 2 2 6 7 5 5 6 6 8 8 7 6 7 8 7 8 9 8 8 7 9 13 15 15 15 15 15 18 18 16 15 13 11 11 11 10 10 9 10 9 9 11 12 11 11 12 12 12 13 13 12 13 13 12 12 13 13 13 14 15 14
2 4 5 4 6 4 3 5 10 10 4 4 10 13 12 13 12 9 6 4 3 5 2 5 3 2 3 4 5 6 6 8 9 10 9 9 8 8 9 9 9 9 9 9 8 9 12 15 18 18 16 17 19 19 16 14 11 10 10 11 10 10 10 10 10 10 11 11 11 11 11 11 11 10 10 11 12 12 12 12 13 13 13 15 16 14
1 2 3 5 5 2 2 4 10 9 3 6 13 11 8 8 7 5 4 4 3 3 3 7 5 3 3 4 5 6 7 10 10 10 9 9 9 9 10 10 9 8 8 9 10 12 14 18 21 20 17 19 20 18 15 13 11 11 12 12 11 11 11 10 11 11 12 11 9 9 10 10 9 7 8 10 10 10 10 11 12 12 12 13 15 14
3 2 1 3 2 3 3 5 4 4 8 11 9 8 7 4 4 4 3 4 3 1 4 8 9 5 2 4 5 7 9 12 10 8 9 10 10 10 10 9 10 9 8 8 9 12 16 20 22 20 20 21 20 17 15 14 14 14 14 14 13 12 11 11 12 11 11 10 8 8 9 9 9 8 9 10 10 8 9 10 10 10 10 10 11 11
5 6 3 1 0 4 7 7 7 6 9 11 6 5 6 3 3 3 4 3 2 3 5 6 9 6 2 4 7 10 9 9 12 11 11 12 11 11 10 9 10 9 9 9 7 9 13 16 18 19 21 21 19 17 15 15 16 16 16 16 14 13 12 12 12 11 10 9 8 7 8 8 9 9 9 10 9 8 8 8 8 8 8 8 8 8
4 3 2 2 1 5 7 5 5 7 6 8 6 6 5 1 2 1 2 1 2 5 3 4 7 4 4 6 8 13 10 8 13 13 13 14 12 11 11 10 9 9 10 9 8 8 11 14 16 19 21 20 19 18 17 17 17 17 18 17 15 14 14 14 13 12 11 10 8 7 7 8 9 9 9 9 9 8 6 6 6 6 6 7 8 5
3 5 4 3 3 2 7 4 1 2 3 5 6 4 4 3 2 1 3 1 1 3 2 4 6 2 4 5 6 12 13 12 13 13 14 14 13 13 13 11 9 10 11 10 9 8 10 14 18 20 22 21 20 20 20 20 18 17 18 18 17 16 16 16 15 13 13 10 9 8 7 7 8 7 6 7 8 7 6 5 5 5 5 6 7 6
2 3 3 1 2 1 4 4 6 4 2 3 5 4 4 4 4 3 3 2 3 3 2 3 4 2 2 4 5 9 11 10 11 12 12 12 11 11 11 10 10 11 11 10 9 10 12 18 21 22 23 23 23 23 22 22 20 19 19 19 18 18 18 18 17 15 14 11 9 9 7 7 7 5 5 5 5 6 5 4 3 2 3 3 5 6
4 3 6 3 3 4 4 2 5 6 2 2 2 5 2 4 5 2 3 4 3 1 1 2 3 3 3 4 5 3 7 8 8 9 10 11 10 10 10 9 10 10 10 10 9 9 13 19 22 23 24 25 26 26 25 24 23 22 22 21 20 20 19 19 19 18 15 11 10 10 8 8 7 6 5 5 4 5 5 3 2 0 2 4 5 7
3 4 6 1 1 6 8 6 5 5 2 1 2 2 3 4 7 3 0 1 3 3 1 2 2 4 1 3 6 3 8 7 8 9 10 11 11 11 10 9 9 10 11 10 10 10 14 19 22 24 26 26 28 28 27 27 26 24 23 23 22 21 19 19 20 19 15 12 12 11 9 8 9 8 6 5 5 4 3 3 3 2 4 6 7 9
4 2 5 2 3 5 7 7 3 3 5 4 1 4 2 2 4 4 2 3 4 1 3 1 3 3 0 1 4 3 7 7 8 10 10 11 12 11 10 9 9 11 12 11 11 13 17 20 22 24 26 28 29 29 29 29 27 24 23 22 21 21 20 19 20 19 15 13 13 12 11 9 10 9 6 4 3 2 2 1 2 4 5 8 9 11
5 1 6 2 6 5 2 5 3 3 2 4 3 4 3 2 1 1 2 1 1 1 3 3 2 3 3 3 3 3 8 8 8 10 11 12 12 11 10 9 9 10 11 10 10 11 15 19 22 25 27 28 30 30 29 29 28 25 23 22 21 19 19 19 18 17 15 13 13 14 12 10 10 9 6 3 2 2 2 1 2 4 5 8 9 10
4 4 3 5 3 4 3 3 1 5 4 2 1 1 2 3 3 2 2 3 3 2 2 2 3 2 4 5 6 8 8 8 10 10 11 13 13 11 10 9 8 10 11 10 10 10 14 20 24 27 29 30 30 31 31 29 29 27 24 24 23 20 19 19 17 17 16 12 12 14 14 12 11 9 5 4 3 3 3 3 3 4 6 7 8 10
3 4 2 5 2 4 1 3 6 6 4 1 1 3 1 0 1 1 1 2 4 3 2 1 1 4 5 4 8 9 8 9 11 11 10 11 12 11 10 9 8 9 11 11 11 11 15 21 24 27 30 30 30 30 30 30 30 29 26 24 24 21 19 19 18 16 15 12 11 13 15 14 11 8 6 5 5 5 4 5 5 5 5 6 9 11
2 3 3 1 1 2 4 6 7 9 8 5 4 4 3 2 2 2 1 2 2 4 4 3 2 6 5 3 7 8 8 8 10 11 10 10 11 11 10 10 9 10 11 11 11 12 15 21 24 26 28 29 29 29 30 30 30 30 28 25 23 20 19 21 18 15 14 13 12 13 15 14 12 9 6 5 6 7 6 6 6 6 7 9 11 12
3 4 3 1 3 4 6 5 3 7 7 5 3 3 3 3 4 5 2 3 1 2 1 3 1 5 5 3 6 7 8 9 8 9 10 9 10 11 10 9 9 10 11 12 12 13 17 22 24 26 26 28 28 28 29 29 29 30 30 27 23 20 21 22 18 14 13 14 13 13 13 13 12 10 8 6 6 8 7 6 6 8 9 8 10 14
2 4 3 1 4 4 5 6 4 3 5 5 2 1 4 3 3 5 5 3 2 1 0 2 0 5 5 2 5 7 7 7 7 8 9 9 8 9 9 9 9 10 11 11 10 13 17 21 23 23 23 25 27 27 28 29 29 29 29 27 24 22 22 23 18 15 14 13 13 14 14 12 12 12 9 6 5 7 8 7 7 6 7 10 13 15
1 1 2 3 3 5 5 6 7 6 4 2 1 2 2 3 4 3 1 3 3 1 3 4 2 6 5 0 4 6 6 6 6 6 8 9 8 8 8 8 8 9 10 10 10 10 13 16 18 20 21 23 25 26 28 28 28 28 28 28 26 24 24 23 18 16 15 13 12 13 14 13 12 12 10 7 4 6 7 5 3 7 11 13 14 17
2 2 3 4 3 1 1 2 2 2 2 1 2 3 1 4 6 3 1 4 2 1 3 4 4 5 4 2 5 6 7 7 6 5 6 7 7 7 7 7 8 9 10 11 10 10 11 13 16 19 21 23 24 24 25 26 27 28 28 28 27 27 26 23 20 17 16 14 12 12 13 13 11 10 10 8 4 2 2 6 10 13 13 14 16 17
4 2 2 6 6 5 6 6 5 3 2 2 1 1 1 4 6 5 4 3 2 1 1 3 5 3 2 0 4 6 8 8 6 6 6 6 6 6 7 7 8 9 10 11 11 10 10 11 14 18 21 21 22 23 23 24 26 29 29 29 29 28 27 23 20 17 15 13 12 10 11 11 10 9 6 3 4 9 12 13 13 14 15 16 16 15
5 2 1 6 5 6 7 7 5 3 2 3 3 3 1 4 6 6 3 3 4 5 1 6 5 6 5 5 6 7 7 7 7 8 8 7 7 7 7 8 9 9 9 9 10 11 11 10 12 17 18 16 16 20 23 25 26 28 28 30 30 29 26 23 17 13 12 14 11 8 7 7 6 6 8 11 13 15 14 14 14 15 16 16 15 16
6 0 2 3 2 5 5 5 3 3 2 3 6 5 4 6 7 5 4 5 6 6 5 6 6 7 7 6 7 8 8 9 9 8 8 8 8 8 8 9 10 9 8 9 10 11 12 10 11 15 17 15 14 17 21 24 26 27 27 27 27 26 23 18 13 9 10 12 9 5 6 7 10 14 16 15 15 15 15 15 16 17 17 17 18 19
5 1 4 3 1 4 5 6 4 4 1 1 3 7 6 7 7 6 5 5 6 5 5 5 7 6 6 7 9 8 8 8 7 6 7 8 9 9 10 10 10 9 9 9 9 10 10 10 13 15 15 15 16 17 20 23 24 24 24 22 20 19 17 15 12 8 9 11 13 16 17 17 18 18 17 16 16 16 16 17 17 18 19 20 20 20
4 2 3 3 3 5 6 6 5 4 4 1 2 4 5 7 5 4 3 4 4 2 1 6 7 3 4 5 6 5 5 7 7 7 8 9 10 11 10 10 10 9 9 10 10 10 10 9 12 14 13 15 17 18 20 20 19 19 18 16 16 17 17 14 12 11 15 19 21 21 20 20 20 19 18 18 18 17 18 18 19 21 22 22 21 21
3 1 1 4 3 5 5 5 4 2 5 3 4 3 7 6 5 3 3 4 4 5 4 6 5 3 4 3 4 4 7 9 9 9 9 7 8 9 8 7 7 7 8 9 9 9 9 8 11 13 13 16 17 16 18 20 19 19 20 20 20 20 17 16 19 22 25 25 23 22 22 21 20 20 19 18 18 18 18 19 21 23 23 23 22 21
3 3 1 3 2 5 6 4 2 5 7 5 4 7 9 5 3 3 1 3 5 7 7 5 5 6 4 5 6 5 7 10 9 8 7 6 6 7 7 7 6 6 8 9 10 9 9 9 11 12 12 13 15 18 21 22 23 23 23 23 21 19 18 22 27 28 27 25 23 23 23 21 21 21 19 18 18 18 19 20 23 24 24 23 22 21
3 5 3 2 2 4 6 2 4 6 2 4 6 7 9 7 6 6 4 6 6 5 5 5 5 4 4 7 9 8 8 8 8 7 7 8 8 7 7 7 6 5 3 3 6 7 8 10 11 12 13 16 19 23 24 24 24 23 22 21 20 20 23 27 28 27 26 25 24 23 22 20 21 21 19 19 18 19 20 22 23 23 22 22 21 21
3 3 2 1 2 1 2 5 4 1 5 7 6 4 5 7 9 7 4 5 6 5 6 6 6 7 8 8 8 8 7 5 5 7 8 10 11 10 9 7 6 6 5 5 5 5 9 14 16 18 20 23 25 25 24 24 23 21 20 20 23 25 28 28 28 26 26 24 23 22 20 20 20 20 19 19 18 20 22 22 22 22 21 21 22 21
5 3 2 1 1 1 2 4 2 5 7 6 7 5 2 4 5 5 0 5 6 7 9 9 9 9 7 5 3 5 6 5 6 4 5 9 11 11 10 8 7 7 7 8 9 11 13 18 22 23 24 25 25 24 22 21 21 21 23 25 27 29 28 28 27 26 25 23 21 20 19 19 20 20 20 19 19 21 21 21 21 21 19 20 21 21
7 5 2 1 0 2 3 1 2 3 5 6 4 3 3 3 4 5 3 6 7 6 9 11 10 8 5 4 5 6 7 7 7 3 3 5 8 11 11 11 11 11 11 13 16 17 19 22 23 24 25 24 23 21 19 18 19 24 27 28 29 29 28 28 27 25 24 22 20 19 18 19 19 20 19 19 20 21 21 20 20 18 16 17 19 20
6 5 4 3 0 2 3 1 3 1 2 6 7 6 4 3 6 7 4 4 7 6 8 10 10 8 5 7 8 8 8 7 6 4 5 5 6 9 11 12 15 17 18 19 20 19 21 23 24 24 24 23 21 19 18 17 19 25 28 28 28 28 27 27 26 24 23 21 19 18 18 18 18 19 19 20 20 20 19 18 18 16 15 16 18 19
7 4 5 5 1 1 4 2 2 3 4 7 8 8 6 3 7 7 5 4 6 7 8 8 9 9 10 11 9 8 8 5 5 6 6 6 8 10 11 11 14 19 23 25 25 23 22 24 24 22 21 20 18 17 17 19 23 28 29 28 28 28 27 26 25 23 22 20 18 18 17 17 17 18 19 20 20 18 18 17 16 15 14 15 17 17
5 4 4 4 1 1 3 2 2 3 4 6 6 6 5 4 8 10 3 6 7 6 7 9 10 10 11 12 10 8 8 7 7 7 6 8 10 12 15 15 15 19 23 25 27 26 24 23 23 21 20 18 17 17 20 23 26 28 27 27 27 27 26 25 23 22 20 18 17 17 16 16 16 17 18 18 18 18 17 16 15 14 14 15 15 16
2 2 2 3 3 3 4 2 3 3 5 6 5 6 5 4 8 6 4 8 5 5 6 8 11 10 10 11 9 7 7 7 6 8 9 10 9 11 16 20 22 25 26 26 26 26 24 23 21 19 18 17 17 19 23 26 27 27 26 26 27 27 26 24 21 20 19 17 17 17 16 15 16 17 17 17 17 17 17 16 14 13 13 14 14 15
2 0 1 2 3 3 3 2 2 4 5 4 4 3 2 5 1 4 6 5 4 7 6 7 9 10 10 10 8 7 5 5 8 12 12 11 11 10 13 18 21 23 25 26 26 25 23 20 18 16 15 16 19 21 24 27 28 28 27 27 27 27 25 23 20 19 18 17 17 17 16 15 15 16 17 16 16 16 17 16 15 13 13 14 14 15
5 3 2 3 3 2 2 2 1 3 6 4 6 1 2 4 6 6 4 3 4 6 6 5 6 7 8 7 4 4 6 8 10 13 11 10 11 12 14 18 19 19 21 23 23 23 22 18 15 15 16 17 20 23 25 27 29 29 28 27 27 26 24 21 19 18 18 17 17 17 15 15 15 16 17 16 15 16 17 16 15 14 13 13 16 17
3 4 3 3 3 3 2 2 3 5 7 7 7 4 4 5 5 5 6 5 5 4 5 5 4 6 8 8 6 6 9 9 10 11 11 10 10 11 12 16 19 20 21 21 21 23 23 20 18 18 19 21 24 25 26 28 29 29 28 27 27 25 23 21 19 17 17 17 17 17 15 15 16 17 17 15 14 16 17 17 16 16 14 14 16 17
5 6 5 3 3 4 5 6 6 4 5 6 5 5 7 6 4 6 7 5 4 4 4 5 5 6 7 10 10 9 9 9 11 12 11 10 10 11 12 15 18 21 22 22 23 25 24 23 23 23 22 24 26 26 26 27 29 30 29 28 26 24 22 20 18 17 17 16 16 16 17 17 18 17 16 14 13 15 16 17 17 17 15 14 15 16
4 3 3 2 1 1 1 3 3 1 3 5 5 4 5 5 5 6 7 5 5 5 4 6 7 8 8 10 10 8 8 10 11 11 11 11 10 11 14 16 18 22 24 24 24 26 26 25 26 26 24 23 25 27 27 26 28 29 29 27 24 21 19 17 16 16 16 16 16 17 19 19 19 18 16 15 14 14 16 16 17 17 15 13 13 14
2 3 3 1 1 1 1 4 5 4 6 7 6 4 3 3 5 6 7 6 5 5 6 7 9 10 9 10 11 10 8 11 12 10 10 11 11 11 14 16 19 23 27 27 27 28 28 27 26 26 26 24 24 27 27 26 26 28 28 25 22 19 17 16 15 16 17 17 18 19 19 19 19 19 17 16 15 15 15 15 16 17 15 12 12 12
2 2 2 0 2 3 4 8 5 2 4 5 3 3 4 5 6 6 6 5 5 6 7 8 10 11 9 9 12 12 10 10 12 12 10 10 11 11 14 18 21 24 26 29 30 30 29 29 29 28 27 26 26 27 27 26 26 26 25 23 20 18 17 16 16 17 18 18 19 19 19 19 19 18 18 16 15 15 15 14 14 15 14 11 10 11
2 0 1 2 1 2 4 4 2 5 6 7 5 5 6 6 7 6 5 6 7 7 6 7 9 11 11 10 10 12 12 11 12 13 13 11 11 12 16 21 25 27 28 31 33 33 32 32 31 31 30 29 29 28 27 27 26 25 23 22 19 17 17 17 17 17 18 19 19 19 19 19 18 18 18 18 16 15 14 13 12 12 13 11 9 9
2 2 2 2 2 3 5 4 4 3 3 7 8 8 8 7 7 6 6 6 7 8 9 9 8 8 10 13 13 13 13 11 12 15 14 12 13 17 21 24 25 27 30 31 31 32 33 33 33 32 31 30 30 29 29 28 27 24 23 22 20 18 17 18 18 17 18 19 19 19 18 18 18 18 18 18 17 16 15 13 10 10 10 11 9 9
4 5 4 4 4 6 7 7 6 5 3 7 8 9 8 6 6 8 8 8 9 9 9 11 9 7 7 10 15 17 14 11 14 17 13 13 19 24 26 27 27 26 28 29 28 28 29 31 32 32 32 31 30 30 29 28 26 25 23 22 20 18 17 18 18 18 19 19 19 19 17 17 17 17 17 17 16 15 15 15 13 10 9 9 9 8
Wind_Direction
93 101 203 196 197 197 199 188 142 129 136 138 125 124 146 131 111 130 128 150 142 97 64 104 130 164 193 216 219 215 151 139 175 193 200 201 196 192 176 152 135 137 150 140 127 120 119 119 116 112 109 105 99 94 90 85 79 76 74 73 69 67 70 73 75 75 73 70 63 60 67 74 75 68 59 59 63 58 49 43 42 42 43 44 44 44
63 162 236 222 205 201 187 147 122 122 128 124 120 131 135 108 121 136 126 133 234 85 80 116 124 175 236 231 245 189 163 197 202 196 204 202 201 193 169 153 138 135 141 132 124 121 121 122 120 117 114 110 103 100 98 93 87 80 76 75 72 71 72 71 72 74 73 68 62 64 75 79 72 64 59 60 67 64 56 52 49 48 47 41 39 42
4 242 250 236 200 167 150 137 131 136 128 111 121 128 115 116 118 107 124 141 240 86 126 136 126 166 279 266 250 202 193 221 210 204 202 192 196 186 160 152 143 137 138 132 125 127 128 127 126 125 122 120 115 110 108 101 95 90 85 80 77 77 78 78 77 76 76 70 62 66 81 87 77 66 63 67 71 70 64 61 58 53 48 42 38 39
224 246 247 232 162 124 143 149 136 127 118 121 131 123 130 142 128 103 155 153 152 93 117 119 104 17 325 329 264 211 213 230 216 221 221 202 199 180 160 153 148 147 145 139 133 135 135 133 134 135 133 132 127 121 118 112 106 102 96 87 81 78 77 81 81 76 75 71 65 65 78 83 73 65 72 79 75 68 64 61 58 50 44 43 42 38
230 245 237 182 145 145 154 154 136 124 131 154 152 140 149 157 129 126 146 132 84 60 99 102 69 336 306 295 264 220 209 216 207 212 234 238 209 163 155 154 151 151 148 145 146 148 144 143 146 146 145 143 136 133 129 120 115 113 108 98 87 81 81 85 82 77 73 71 72 69 72 79 72 70 79 83 74 64 60 56 54 48 42 45 46 41
254 260 234 173 160 154 159 161 149 143 143 164 209 173 155 146 123 123 132 120 82 85 177 128 76 304 284 264 251 232 204 205 195 194 214 223 190 156 159 160 152 147 147 149 152 156 153 153 155 154 156 154 146 142 137 127 122 122 119 111 100 95 97 98 91 85 82 78 73 63 64 77 76 74 83 84 74 64 59 54 54 52 47 48 48 44
260 285 137 169 160 150 161 170 160 148 133 182 212 166 144 132 128 136 141 128 118 179 195 163 112 242 277 265 245 230 205 211 203 198 205 202 180 168 169 165 153 147 146 151 155 159 160 160 159 162 168 164 153 149 148 141 135 133 132 127 121 116 114 115 108 97 88 82 77 63 62 73 76 76 86 86 77 69 62 57 54 54 54 51 49 47
254 357 32 65 103 129 157 170 167 153 140 186 173 143 139 138 142 154 146 130 156 145 159 188 135 121 246 250 228 200 196 218 218 207 205 199 185 173 172 170 159 155 155 155 161 167 168 166 165 168 170 163 156 157 159 155 147 146 146 140 135 130 128 129 124 111 100 93 90 79 72 77 79 79 81 80 78 73 64 57 53 53 55 49 46 50
257 44 37 66 71 85 162 168 163 155 139 169 152 144 151 150 151 156 132 111 134 110 144 227 184 128 262 253 193 175 196 218 216 208 203 197 189 175 173 175 166 162 161 158 165 173 172 169 167 166 159 152 155 160 162 159 155 161 160 151 146 143 140 139 135 123 114 109 104 96 92 92 90 87 85 82 78 72 64 59 55 53 51 42 41 47
291 114 143 114 88 125 189 143 155 155 122 140 143 134 129 133 129 119 109 106 95 92 202 220 185 138 277 255 163 163 205 218 212 206 201 195 191 180 174 175 170 163 161 160 166 172 171 167 164 162 155 151 157 162 163 166 170 174 172 167 165 162 154 146 144 134 123 123 118 108 110 111 111 112 108 101 89 79 71 67 62 53 45 38 37 44
302 333 128 109 110 169 112 64 87 123 111 114 116 100 86 79 74 66 61 90 84 330 244 206 180 158 266 261 180 184 209 205 196 197 198 194 190 184 178 174 168 163 163 164 167 167 164 163 163 162 157 155 161 167 169 175 181 182 181 180 178 176 170 159 153 146 136 135 128 117 117 119 121 121 119 116 107 99 91 79 69 55 47 47 45 45
356 6 352 317 20 110 87 57 26 30 90 104 102 106 97 32 21 41 3 37 114 259 260 204 174 158 234 259 208 210 215 188 182 190 194 192 189 187 181 173 168 164 164 164 163 160 156 157 160 160 159 160 165 172 178 183 188 190 191 188 184 184 183 174 166 160 154 148 140 131 127 123 120 119 121 121 115 115 106 90 80 66 60 62 55 47
350 322 297 314 353 99 92 65 19 12 51 96 114 114 101 57 20 26 301 313 204 245 262 175 155 157 243 249 218 213 211 184 185 190 189 188 184 183 182 175 167 162 164 166 161 159 158 158 158 158 161 166 171 180 190 191 189 193 197 194 192 194 192 183 176 172 167 159 155 149 144 138 127 119 120 119 118 124 122 103 89 78 77 67 51 40
336 313 330 19 342 73 104 107 95 3 44 112 139 132 112 119 95 257 256 281 227 254 314 133 149 190 276 266 222 206 202 190 188 188 185 184 180 177 180 174 163 162 165 166 163 163 164 162 161 162 167 174 181 190 198 198 195 197 201 203 203 204 198 190 186 184 177 171 169 166 162 157 142 129 129 125 124 129 130 125 103 85 88 71 41 24
122 313 296 171 250 339 97 144 162 144 107 141 156 129 122 147 147 188 215 192 209 249 3 105 155 192 227 255 236 201 195 188 185 186 180 178 174 171 174 168 158 164 167 165 166 167 168 166 165 168 175 182 188 194 201 205 204 205 208 210 208 207 203 197 196 193 185 181 185 182 175 173 163 142 137 138 139 142 141 151 144 96 78 56 27 9
116 244 256 218 186 140 111 189 152 109 83 245 131 95 121 183 147 142 182 173 174 150 72 157 202 220 202 271 296 167 169 179 176 174 168 167 168 163 170 170 158 164 168 167 168 167 170 170 168 173 182 186 191 197 202 208 210 211 214 215 213 212 207 200 199 197 191 191 197 193 183 185 184 163 147 145 142 151 163 184 202 183 7 1 357 346
95 264 270 2 117 147 147 183 169 124 137 304 66 136 230 173 122 110 224 20 71 101 239 223 255 300 313 312 328 93 149 171 162 164 166 164 164 164 175 176 162 166 171 169 170 169 173 175 174 180 186 189 194 202 206 209 212 214 217 218 215 214 210 204 202 199 198 199 201 198 189 191 193 178 157 140 124 134 170 199 231 261 331 339 334 330
134 276 283 112 146 199 174 164 149 145 142 112 171 213 216 66 80 99 114 14 36 119 279 262 209 271 156 242 310 83 138 165 164 165 165 160 165 171 180 180 168 168 172 170 170 172 175 178 180 185 192 194 197 204 207 209 212 214 217 220 217 213 211 209 205 202 204 206 204 200 191 191 194 182 163 145 127 130 160 192 259 273 326 341 333 326
126 43 292 221 170 195 161 98 56 294 172 123 193 191 106 84 330 48 123 117 85 172 285 302 264 244 190 211 248 160 154 166 165 163 160 163 172 175 179 182 170 163 169 172 170 174 179 182 185 190 196 199 201 206 209 210 212 213 215 219 219 217 214 210 207 207 209 210 209 203 195 193 192 185 182 182 165 176 203 268 290 289 329 348 340 331
117 105 268 269 195 144 58 64 149 264 285 14 317 290 74 140 169 164 168 155 137 163 247 300 330 272 227 210 193 187 181 165 160 164 166 171 176 175 177 179 167 162 170 176 174 179 183 185 190 195 198 202 206 210 212 213 215 215 216 218 222 224 217 209 207 209 209 209 211 204 198 197 195 193 202 207 204 222 231 239 268 296 323 348 348 341
79 106 186 291 318 103 96 221 185 198 225 189 253 260 269 127 122 129 182 144 128 140 181 196 297 270 255 198 181 194 191 170 168 168 169 174 174 174 177 172 164 166 172 177 177 181 185 187 193 199 201 205 209 213 215 216 217 219 220 221 222 224 215 204 203 208 209 208 207 203 199 198 198 200 207 216 229 237 237 244 264 291 312 336 347 355
108 120 140 292 308 170 225 230 191 187 191 167 171 204 190 156 116 91 315 290 108 128 169 161 204 265 262 184 182 194 185 180 177 166 164 173 172 173 178 170 162 164 171 177 180 181 185 189 194 200 204 207 211 214 216 217 218 220 222 220 219 219 210 202 205 212 214 211 207 202 198 199 204 209 213 222 233 236 244 259 276 297 310 333 1 26
131 105 98 140 227 230 253 271 208 179 171 141 154 179 141 123 117 119 194 260 52 76 167 123 121 268 265 198 180 187 182 178 175 164 161 169 173 173 174 169 162 165 173 178 180 181 185 190 195 200 203 207 212 215 216 216 217 220 222 219 217 217 210 206 211 220 217 213 212 206 200 204 212 215 215 225 240 242 246 263 289 309 327 4 42 56
72 78 61 331 300 304 307 321 346 64 90 80 35 84 120 140 144 143 173 179 105 45 165 89 37 269 275 237 177 180 176 168 166 163 160 165 174 175 170 168 167 170 176 177 177 182 186 190 196 201 204 208 213 216 217 217 217 219 220 218 217 217 211 209 217 225 218 212 214 213 209 213 219 219 219 230 254 256 253 272 304 338 30 61 66 60
42 82 72 55 3 346 346 346 349 2 33 83 327 332 135 128 94 95 101 81 74 240 152 126 221 257 275 303 146 160 154 158 174 170 164 167 172 175 172 166 166 168 174 178 179 184 188 191 197 202 207 211 214 216 218 217 216 216 217 217 217 216 213 214 222 225 218 211 209 208 209 214 219 220 223 227 261 277 271 286 9 62 70 69 61 56
115 145 114 105 116 159 207 293 280 296 343 13 334 333 31 79 79 89 62 70 74 262 115 132 209 256 294 42 113 148 148 156 180 169 164 173 168 170 169 157 160 165 172 181 183 185 191 195 199 204 209 214 216 217 217 215 212 212 216 219 219 218 218 220 223 224 220 210 201 201 206 214 217 220 227 236 270 328 66 86 84 79 68 60 58 58
91 100 119 135 158 178 185 219 225 178 84 24 333 318 73 76 83 97 88 89 163 144 71 212 196 186 275 266 136 160 157 155 167 159 160 172 164 161 162 158 165 168 171 183 186 186 193 199 204 210 213 215 218 219 219 216 210 210 216 221 221 221 223 221 221 224 218 199 188 193 201 211 218 220 220 202 106 95 96 90 81 73 64 59 61 65
88 25 99 144 179 202 187 208 223 165 148 162 175 211 164 95 84 87 108 175 143 108 289 258 183 159 225 229 178 175 168 156 165 165 163 166 161 160 162 167 175 172 168 176 183 187 194 199 207 216 218 218 224 224 220 216 210 209 216 222 221 221 221 219 215 211 199 188 189 201 208 213 207 166 127 115 107 100 94 84 75 70 65 65 71 80
105 124 211 146 251 253 217 223 208 152 191 176 166 195 175 122 114 116 165 186 134 131 225 232 172 181 222 222 192 184 174 168 174 170 159 154 156 161 166 172 180 181 174 175 181 187 194 197 204 214 215 214 221 220 209 204 203 206 214 219 218 217 214 205 189 169 177 188 183 153 139 137 129 122 115 110 104 95 88 82 74 70 70 76 85 90
103 198 218 142 5 288 260 247 213 139 112 296 188 201 178 143 152 157 172 180 141 152 209 176 159 203 225 201 197 194 179 171 162 148 142 147 158 167 172 177 182 186 185 185 185 186 193 196 199 205 204 199 205 203 189 186 190 197 206 209 206 199 185 172 164 158 167 161 133 118 118 118 116 115 110 102 96 91 86 80 75 77 80 85 89 89
87 215 232 107 54 306 284 246 222 137 126 298 288 207 159 131 147 159 163 162 119 94 174 124 131 208 252 203 188 176 160 148 138 146 157 164 172 175 176 181 185 189 193 195 192 191 196 194 193 200 193 182 187 184 172 172 179 184 188 185 173 162 154 151 150 142 134 128 123 121 120 117 113 107 100 96 92 87 82 80 81 84 84 84 87 86
87 181 299 64 69 292 277 218 228 54 75 18 338 174 160 147 158 179 192 177 141 125 122 110 126 205 244 194 146 143 152 149 153 166 168 169 174 170 165 169 176 187 199 205 202 197 199 195 192 196 187 176 175 164 152 153 154 153 152 149 146 147 147 140 132 128 126 124 124 123 120 115 109 102 97 93 89 85 83 84 85 83 80 81 84 83
116 116 81 87 110 277 275 205 169 46 44 347 289 182 178 186 164 141 158 197 165 139 138 157 192 215 210 153 137 154 163 159 165 170 160 150 142 140 145 148 156 182 203 211 207 200 199 200 194 187 176 167 158 147 143 143 139 136 138 141 144 148 143 133 128 128 126 125 124 122 117 112 105 100 97 93 90 88 87 84 82 79 78 79 80 78
114 109 145 143 124 274 293 6 62 49 47 258 248 188 177 180 165 157 183 208 192 154 144 171 184 189 174 155 156 171 179 177 176 173 160 147 133 134 146 146 146 154 156 178 189 186 181 176 169 161 152 144 139 135 135 135 133 136 144 148 146 140 134 131 129 127 125 124 122 118 112 107 103 100 98 95 93 90 86 82 79 77 77 77 77 78
116 108 151 122 104 233 339 44 56 278 234 246 279 269 189 163 155 159 192 224 199 148 119 135 159 181 183 174 169 172 180 177 156 153 156 150 141 141 143 140 137 124 103 100 109 124 144 145 139 135 133 132 131 130 130 132 134 139 146 146 138 132 132 132 128 125 123 121 117 113 108 103 102 102 101 98 94 89 84 80 78 78 77 76 77 80
134 143 148 86 98 182 59 76 161 241 259 289 315 301 216 122 113 115 46 271 229 166 142 152 181 201 191 169 154 155 150 124 99 113 155 152 143 141 140 142 142 128 120 119 110 107 119 126 127 127 128 130 131 130 130 133 133 132 133 135 133 131 133 131 126 122 121 117 113 109 106 105 105 105 103 99 93 88 83 80 79 78 77 78 79 81
128 132 107 52 112 152 140 195 263 287 305 312 308 251 205 176 157 143 166 262 250 194 163 165 182 203 188 139 126 124 115 99 90 103 198 168 145 140 140 143 141 132 124 120 116 117 119 120 123 126 129 132 133 133 135 135 130 127 128 130 131 131 131 127 123 120 118 115 112 109 107 108 107 105 102 98 93 89 84 80 78 76 74 77 79 79
108 129 138 131 101 98 110 335 323 19 274 263 248 254 262 190 155 135 121 282 267 222 187 172 171 179 162 139 135 121 105 105 129 180 218 199 154 135 131 135 133 129 125 122 120 121 123 122 123 125 129 133 132 131 135 137 134 131 130 130 130 130 129 125 122 120 117 114 112 109 108 108 106 104 103 98 94 90 85 79 77 75 76 80 81 81
66 73 106 105 62 50 106 123 223 201 241 249 239 263 280 163 127 94 61 314 268 224 195 173 164 164 154 148 148 134 120 134 186 214 211 183 158 138 130 132 131 128 127 128 128 128 127 124 123 124 128 130 127 123 128 136 137 134 131 130 131 131 128 124 122 120 117 115 113 110 109 108 108 106 104 100 97 92 86 82 81 82 84 84 83 80
47 26 63 96 174 193 122 143 234 224 253 258 243 250 243 141 87 71 51 276 259 215 189 171 164 169 162 153 153 150 151 174 200 206 187 167 154 143 139 140 138 132 130 131 132 132 131 129 129 131 133 130 126 126 132 138 137 133 130 130 131 129 126 124 122 119 117 115 112 109 109 111 111 109 107 105 103 96 90 86 85 87 88 86 81 74
26 5 71 127 172 164 146 195 266 258 251 250 236 222 198 111 65 79 199 243 228 177 189 177 165 171 167 156 161 176 190 198 179 158 158 155 147 145 145 143 141 138 137 138 139 138 138 137 136 136 135 133 133 135 140 141 136 131 130 129 127 127 127 126 123 119 117 115 112 112 113 114 113 112 113 114 111 102 92 85 83 86 89 85 76 69
174 194 65 139 161 167 160 175 295 283 253 210 183 206 129 91 91 217 214 221 166 154 183 186 171 173 171 168 180 190 188 175 144 141 150 155 150 148 146 142 138 138 140 142 143 145 144 142 140 139 136 136 139 141 143 142 135 131 131 128 127 130 131 128 124 120 118 117 115 117 118 118 118 120 121 122 117 105 93 86 83 84 86 81 72 69
172 166 228 213 183 155 102 78 45 268 250 177 137 99 57 133 204 220 197 197 185 155 147 156 166 172 168 171 191 166 132 126 133 141 149 153 149 148 148 146 142 140 143 145 147 149 145 139 138 142 142 142 144 146 146 142 135 133 133 130 131 133 132 127 124 120 118 118 119 122 125 125 128 131 129 126 119 105 96 90 85 83 84 81 74 71
178 161 196 229 196 133 120 196 210 217 220 185 153 169 213 201 196 171 153 188 220 179 132 129 162 177 164 155 152 138 126 124 133 141 145 148 149 148 149 149 144 141 144 148 149 148 144 137 134 137 142 146 148 149 149 145 138 136 136 134 135 134 131 127 124 120 119 122 125 129 133 135 137 137 134 129 119 107 98 91 86 84 85 81 75 71
218 186 176 193 192 170 180 210 226 221 207 193 170 182 212 217 192 156 152 170 215 209 161 139 159 176 162 146 142 138 133 137 144 148 148 151 155 153 150 148 144 142 144 148 150 149 145 140 137 136 138 145 149 150 151 148 143 139 139 140 140 136 131 127 123 121 122 126 131 136 140 141 140 137 134 129 119 108 101 94 88 86 86 81 76 73
230 175 139 133 189 235 227 217 225 214 198 213 216 206 202 198 180 158 153 170 207 211 175 148 158 169 162 148 142 142 147 147 147 150 151 150 153 152 146 142 140 140 141 144 146 147 144 140 139 139 139 144 149 150 150 151 148 144 143 146 145 140 134 129 123 123 128 132 137 143 144 142 140 137 134 128 118 107 101 95 90 89 88 85 80 75
300 111 99 89 128 110 304 258 230 193 191 205 213 222 226 207 185 166 162 183 205 188 166 162 159 158 162 156 147 148 156 149 144 146 150 148 152 153 146 142 143 145 146 148 148 147 145 141 141 143 144 146 151 152 151 151 149 146 146 149 147 143 139 133 127 129 136 140 143 147 146 144 143 141 137 131 121 110 103 96 93 93 92 90 88 84
284 93 93 163 164 164 233 249 243 227 245 237 215 218 225 209 202 194 176 175 172 156 159 167 157 153 165 167 153 149 154 154 148 148 152 153 154 156 152 150 153 154 153 153 153 152 150 147 147 148 149 150 152 154 153 151 149 148 149 149 148 146 142 138 134 136 142 147 148 149 149 148 147 146 140 133 123 113 107 103 99 99 99 96 93 91
195 217 188 168 171 292 268 254 48 23 324 293 277 262 244 208 197 195 175 157 150 139 143 163 168 165 167 168 159 150 153 161 157 152 156 160 159 162 163 161 160 161 161 160 160 160 157 154 153 152 151 151 153 154 153 151 150 152 153 152 153 152 146 140 139 141 147 152 151 149 150 151 152 150 145 137 128 118 113 110 105 106 110 110 103 93
170 258 243 113 80 293 261 218 155 123 259 255 241 235 234 220 192 172 158 161 163 156 153 164 182 185 171 166 164 156 156 168 168 159 159 165 167 169 171 168 165 166 166 165 164 164 161 158 156 153 151 152 155 155 153 152 153 155 156 156 158 157 152 147 145 146 151 154 152 151 152 151 152 153 150 145 139 131 125 121 115 112 116 120 118 104
175 195 179 143 176 233 239 222 185 156 199 241 231 212 210 210 187 172 174 178 179 177 165 157 165 182 185 178 173 166 162 169 172 166 164 173 176 175 173 171 170 170 170 168 165 162 159 157 156 154 153 155 158 158 156 156 157 158 159 160 163 162 158 154 151 151 155 157 156 155 156 153 153 155 154 152 149 142 136 135 132 126 124 123 123 113
Height
781 795 802 801 802 801 802 802 801 806 811 818 825 830 832 834 837 835 833 831 826 834 843 843 846 845 842 841 839 840 841 842 843 843 843 842 841 841 841 841 841 842 843 842 843 843 843 844 844 844 844 844 845 845 845 845 845 845 844 843 843 843 842 841 840 840 840 840 840 840 840 840 841 841 841 841 841 840 840 839 838 837 836 835 833 833
784 798 799 791 790 791 793 797 799 807 813 818 825 829 831 833 836 833 833 834 826 833 844 841 844 846 841 841 839 838 841 841 841 841 842 841 840 840 840 840 841 842 843 843 843 844 844 844 845 845 845 845 846 847 847 847 847 846 846 845 845 844 843 843 842 842 842 842 842 842 842 842 842 842 842 842 842 841 841 840 839 838 837 836 834 834
796 799 790 782 785 787 790 794 799 807 813 820 825 827 831 832 836 837 835 835 830 835 844 842 845 847 842 841 839 838 839 839 838 838 839 839 838 839 839 839 841 842 843 844 844 844 845 845 845 846 846 847 847 848 848 848 848 848 847 847 846 846 845 844 844 844 844 844 844 844 844 844 844 844 843 843 843 842 841 840 840 838 838 837 835 835
805 794 780 777 783 788 794 795 799 809 815 821 824 826 830 828 834 844 841 837 832 835 842 844 847 848 844 842 839 838 838 836 836 837 836 837 837 836 837 837 839 842 843 844 844 845 845 845 846 847 847 848 848 848 849 849 849 849 849 848 848 847 846 846 845 845 845 845 845 845 845 845 845 845 845 844 844 843 842 841 840 839 838 837 836 836
796 782 772 776 783 789 796 798 801 813 820 822 820 822 826 824 827 837 839 837 836 839 840 843 853 854 847 846 843 838 837 836 835 836 837 836 836 836 837 837 838 840 842 843 844 845 845 845 846 847 848 848 849 849 850 850 849 849 850 849 849 848 847 847 847 847 847 847 847 847 846 846 846 846 846 845 845 844 843 842 841 840 839 838 837 837
788 775 771 778 784 788 795 800 801 810 821 823 818 815 817 820 824 830 833 837 847 854 844 842 859 861 849 848 846 840 838 837 836 837 837 836 836 837 838 838 839 839 840 842 843 844 844 845 846 847 848 848 849 850 850 850 850 850 850 850 849 849 848 849 848 848 848 848 848 848 847 847 847 847 847 846 846 845 844 843 842 841 840 839 838 837
782 773 772 778 782 787 794 799 798 802 818 822 811 807 812 817 823 829 831 836 850 854 841 837 854 863 856 849 844 841 841 839 837 837 836 835 835 837 837 837 838 839 840 842 842 843 844 844 846 846 847 848 849 850 850 850 850 850 850 850 850 850 850 850 850 850 849 849 849 849 848 848 848 848 847 847 846 846 845 844 843 842 841 840 839 838
777 774 776 777 781 788 793 797 795 796 810 813 802 804 812 816 822 827 827 834 840 842 842 840 844 858 860 848 839 840 843 842 839 838 835 833 834 835 836 836 837 838 839 841 842 842 843 843 845 846 847 848 848 850 850 850 851 850 851 851 851 851 850 850 851 851 850 850 850 850 849 849 849 848 848 848 847 847 846 845 844 843 842 841 840 838
775 778 780 779 783 789 789 788 788 790 798 801 797 801 807 811 819 823 827 834 836 841 852 848 841 853 857 842 835 839 845 845 840 837 834 832 832 833 834 835 835 836 837 838 840 841 842 843 844 845 846 847 848 849 850 850 851 851 851 851 851 851 851 851 851 851 851 850 850 850 849 849 849 849 848 848 847 847 846 845 844 843 842 841 840 839
776 775 774 777 784 787 784 782 781 784 790 792 794 800 805 812 818 823 830 835 837 843 852 847 842 851 852 841 839 844 845 842 836 833 831 830 830 830 831 833 833 835 836 837 838 840 841 842 843 845 846 847 848 849 850 850 850 851 851 852 852 852 852 851 851 851 851 850 850 850 849 849 848 848 847 847 847 846 846 845 844 843 842 841 840 839
775 769 769 774 779 780 780 781 781 781 784 789 798 807 815 820 820 826 831 833 843 848 841 838 838 844 848 842 840 839 831 827 828 830 829 827 828 828 829 830 832 834 835 836 838 839 841 842 843 845 845 847 848 849 850 850 850 851 851 851 851 851 852 852 852 851 851 850 850 850 849 849 848 848 847 847 846 845 845 844 843 842 841 840 840 839
777 775 776 773 772 774 779 784 784 782 783 790 804 814 824 831 828 832 835 836 848 847 832 831 834 840 848 838 829 825 815 814 822 825 825 825 825 826 826 828 829 831 833 835 837 839 841 842 843 844 845 846 848 848 849 849 850 850 851 851 851 851 851 851 851 851 851 850 850 850 849 849 848 848 847 846 846 845 844 843 843 842 841 840 839 839
785 783 780 775 771 772 781 790 791 789 789 797 810 817 828 841 842 844 847 845 847 839 828 830 833 840 842 824 814 816 811 811 814 814 817 819 821 823 824 826 827 829 831 833 836 838 840 841 842 843 844 845 847 847 848 849 849 849 850 850 850 850 850 851 851 851 850 850 850 849 849 849 848 848 847 846 845 845 844 843 842 841 841 840 839 838
797 790 781 780 779 773 779 793 799 798 797 801 809 814 823 840 850 853 853 850 845 836 827 827 831 839 834 812 803 806 805 804 805 807 810 812 816 820 820 823 826 828 830 832 834 837 838 839 841 842 843 844 845 846 847 847 848 848 849 849 849 849 850 850 850 850 850 850 849 849 849 848 848 847 846 846 845 844 844 843 842 841 840 839 838 838
809 807 789 785 784 777 778 786 790 794 797 798 800 805 815 825 836 843 844 843 842 837 832 831 833 836 827 809 798 797 798 799 801 803 806 809 813 816 818 822 825 827 828 830 833 835 836 838 839 841 842 842 843 844 845 846 847 847 847 848 848 848 849 849 849 849 849 849 849 848 848 848 847 847 846 845 844 843 843 842 841 841 839 839 838 837
810 808 786 778 777 774 780 782 779 788 799 800 798 806 811 808 813 827 834 834 834 837 838 835 829 821 813 803 795 795 798 799 801 803 806 811 813 815 819 821 823 825 827 829 831 834 836 837 838 839 840 841 841 843 844 844 845 845 845 846 846 847 847 848 848 848 848 848 848 847 847 847 847 846 845 844 844 843 842 841 841 840 839 838 838 837
808 804 782 777 778 773 778 780 776 785 797 801 803 807 802 794 800 819 833 832 831 837 838 834 826 816 811 807 797 797 801 801 803 805 807 811 813 816 819 819 822 824 825 828 830 832 835 836 836 837 838 839 839 840 841 842 842 843 843 844 845 845 846 847 847 847 847 847 847 846 846 846 845 845 844 843 843 842 841 841 840 839 838 838 837 836
797 800 785 779 785 777 771 775 776 777 785 798 806 799 793 795 800 811 827 836 839 842 838 832 828 823 823 820 806 802 805 805 805 806 807 811 813 815 817 817 820 822 823 826 828 830 833 834 835 836 836 837 837 838 839 839 840 841 842 843 843 844 845 845 846 846 846 845 845 845 845 845 844 844 843 843 842 841 841 840 840 839 838 837 837 836
786 800 792 779 782 779 772 779 788 783 778 787 792 786 792 808 813 814 825 833 839 846 841 832 831 826 822 820 811 806 807 806 806 807 809 812 813 814 815 816 818 821 823 825 827 829 831 832 834 834 835 835 835 836 837 837 839 839 840 841 842 843 843 844 845 844 844 844 843 844 844 843 843 843 842 842 841 841 840 840 839 838 837 837 836 835
781 799 801 783 776 779 780 787 796 794 785 783 785 785 790 801 808 811 817 821 828 842 844 837 834 826 814 809 806 803 803 805 806 808 809 810 810 811 813 815 818 820 821 823 825 827 828 830 831 832 832 832 833 834 835 836 838 838 839 840 840 841 842 842 843 842 842 842 842 842 842 842 842 842 842 841 841 840 840 839 839 838 837 836 836 835
779 793 802 791 781 785 791 789 789 791 790 791 794 796 794 796 800 805 811 813 816 831 841 840 837 824 805 799 799 796 799 802 802 804 806 807 807 809 810 812 815 818 819 821 822 824 826 828 829 830 830 831 831 832 833 834 836 836 837 838 838 839 840 840 840 840 840 840 840 840 840 841 841 841 841 840 840 840 839 839 838 837 837 836 836 836
779 787 796 797 793 793 790 779 775 779 783 787 790 792 793 795 801 811 819 814 810 820 830 832 834 819 798 794 794 791 795 799 798 800 804 805 806 807 809 810 813 815 816 818 819 821 824 825 827 828 828 829 829 830 831 832 833 834 835 836 837 837 838 838 838 838 838 839 839 839 839 840 840 840 840 840 839 839 839 838 838 837 837 837 836 835
774 782 792 797 795 792 784 774 773 775 775 779 783 784 790 794 798 811 820 813 811 820 824 824 828 814 794 790 791 790 792 794 796 799 801 804 804 805 807 808 811 813 814 816 817 819 821 822 824 826 826 827 827 827 829 830 831 832 833 834 835 836 836 836 837 837 837 837 838 838 838 839 839 839 839 839 839 839 838 838 838 838 838 837 836 835
773 785 794 797 794 787 778 772 772 770 773 781 785 783 787 791 791 797 805 805 810 820 820 823 829 813 793 790 790 790 792 793 796 798 800 803 804 804 806 808 810 812 812 814 815 817 819 820 822 823 824 825 825 825 826 827 828 830 832 833 834 834 834 834 835 835 836 837 837 837 838 838 838 838 838 838 838 838 838 838 838 838 838 837 835 835
778 792 798 804 809 804 797 791 785 778 779 786 789 786 786 787 787 793 800 803 810 817 815 820 825 811 795 792 791 791 794 796 797 798 798 801 803 803 805 807 809 811 812 814 815 816 818 819 820 821 821 822 822 823 824 824 826 828 830 831 831 832 832 833 834 834 835 836 836 836 837 837 837 837 838 838 838 838 838 838 838 838 837 836 835 835
779 791 794 804 819 823 820 813 803 793 789 790 790 787 785 785 787 792 801 807 813 818 815 815 816 807 796 794 793 794 797 798 798 799 799 799 801 802 804 806 808 810 811 812 813 815 816 817 818 818 818 819 820 821 822 822 824 826 827 829 829 830 831 831 833 834 834 835 836 836 836 836 836 837 837 838 838 838 838 838 838 838 837 836 836 835
780 788 788 794 803 808 807 801 795 792 792 794 794 789 786 788 788 792 803 810 811 814 813 809 807 804 800 798 797 797 798 798 799 800 800 800 801 802 803 805 806 807 809 810 811 813 814 815 816 816 816 817 818 819 820 821 822 824 825 826 827 828 829 830 832 833 834 835 835 835 835 835 836 837 837 838 838 838 838 838 838 837 837 837 836 835
781 789 789 789 788 789 789 786 786 789 789 791 793 791 788 788 788 792 801 804 806 813 815 806 802 804 802 799 798 797 797 798 799 799 799 800 801 802 803 804 804 805 808 809 810 812 813 814 814 814 814 816 817 817 818 818 820 821 823 824 825 826 828 830 832 833 833 834 835 835 835 835 837 837 837 838 838 838 838 838 838 838 838 837 836 836
781 790 791 790 787 785 786 785 784 785 786 786 789 790 789 788 789 792 797 799 800 807 808 801 800 801 798 797 797 794 793 794 796 796 797 798 800 801 802 803 803 805 807 808 809 810 811 812 812 812 813 814 815 815 815 816 817 819 821 822 824 826 827 830 831 832 833 834 834 835 835 835 836 837 838 838 838 838 838 839 839 838 838 837 836 836
781 789 788 786 787 786 787 787 783 782 786 786 786 789 788 787 788 788 791 793 793 796 798 797 800 798 792 792 792 789 789 790 792 795 796 798 799 800 801 802 803 804 805 805 807 807 808 809 809 810 811 812 812 813 813 814 816 818 820 821 823 825 827 829 831 832 833 834 835 835 835 836 836 837 838 838 838 839 839 839 839 838 838 838 837 837
780 789 788 785 790 792 787 785 783 783 786 787 788 791 790 789 791 790 789 789 791 799 801 798 800 799 790 787 788 788 790 791 793 795 796 797 797 798 800 801 802 803 803 803 804 804 805 806 807 809 810 811 811 812 813 814 816 818 819 821 823 825 827 829 830 831 832 834 835 835 835 836 837 838 838 839 840 840 840 840 839 838 838 838 837 837
778 788 789 788 798 799 789 786 785 783 787 789 790 792 792 791 791 790 788 786 788 798 803 802 802 798 789 786 788 790 790 791 792 794 795 796 796 797 799 801 801 802 802 802 802 803 803 804 805 807 809 810 811 812 813 815 816 817 818 821 823 825 827 829 830 831 833 834 835 835 836 837 837 838 839 840 841 841 841 840 839 839 838 838 838 838
778 784 788 794 803 801 791 788 785 787 798 800 790 787 788 787 787 788 787 784 784 791 798 800 797 791 786 786 790 792 792 791 792 793 794 796 797 798 799 800 800 801 800 800 800 801 802 803 804 806 808 810 811 813 813 815 816 817 819 821 823 825 827 829 830 832 833 834 835 835 836 837 837 838 840 840 841 841 841 840 839 839 838 838 838 838
781 782 788 794 798 800 797 792 792 803 812 801 783 777 779 779 781 785 784 781 781 783 786 787 786 785 786 786 787 790 790 789 789 790 791 793 795 798 799 799 799 800 798 799 799 799 800 802 804 806 808 810 811 813 814 815 816 818 820 822 824 825 827 829 830 832 833 834 835 836 837 837 837 838 840 840 841 841 840 840 839 839 839 839 839 839
781 781 787 793 795 800 799 798 808 818 808 788 777 776 776 774 775 778 779 779 780 780 780 782 784 784 783 782 782 784 786 786 787 788 789 790 791 795 798 799 800 800 800 800 799 800 801 801 803 806 808 810 812 813 815 817 818 820 822 823 825 826 827 829 831 832 833 835 836 837 837 837 838 839 839 840 841 840 840 840 839 840 840 840 841 841
777 781 786 792 797 801 802 806 815 812 794 781 779 777 776 777 777 780 785 783 779 778 778 781 783 782 781 783 783 784 785 786 789 791 791 790 789 791 795 799 800 799 800 800 800 801 802 803 804 806 808 811 813 814 816 818 819 821 822 823 825 826 828 829 831 833 834 835 836 837 837 838 838 839 839 839 840 840 840 840 840 841 841 841 842 842
772 780 785 792 800 804 805 807 806 803 796 788 780 775 774 774 773 778 786 784 777 777 778 778 781 782 783 785 786 786 786 789 794 797 795 792 791 791 793 796 797 798 799 800 801 803 804 805 806 808 810 812 814 815 817 819 820 821 822 824 826 827 828 829 831 833 835 836 837 837 838 838 838 838 839 839 839 840 840 841 841 842 842 842 843 843
769 775 781 790 800 803 804 806 806 810 807 791 777 771 770 770 768 772 782 783 776 775 777 776 778 782 785 787 788 787 788 795 801 800 796 795 794 793 794 796 796 797 798 800 803 804 806 807 808 809 811 813 815 817 818 819 821 822 823 825 826 827 829 830 832 834 835 836 837 837 838 838 837 837 838 838 839 840 841 841 842 843 843 843 843 844
772 777 779 786 797 799 800 806 811 810 798 782 773 769 770 771 768 771 788 791 776 771 775 775 776 781 783 785 787 786 791 801 804 797 793 794 794 792 794 797 797 798 799 800 803 805 807 809 810 811 813 814 816 818 818 819 820 821 824 825 826 827 829 831 833 834 835 836 837 837 837 837 837 837 838 838 840 841 841 842 843 844 844 844 844 844
777 781 782 787 794 798 801 805 807 799 786 776 772 771 772 770 767 782 804 796 772 768 774 772 774 779 779 781 785 786 789 795 795 791 790 792 792 791 792 795 797 798 799 801 804 806 808 810 811 812 814 815 817 818 818 819 820 822 824 825 826 828 830 832 833 834 835 836 837 837 837 837 837 837 838 839 840 842 843 843 844 844 844 844 844 844
783 785 790 792 793 799 803 804 803 793 779 772 771 770 769 770 778 796 802 783 766 769 772 769 772 776 776 779 782 781 781 781 782 784 788 791 792 793 793 794 796 797 799 802 805 806 808 810 811 813 814 815 817 817 818 819 820 823 825 826 827 829 831 832 834 834 835 836 836 837 837 837 837 838 838 840 841 842 844 844 844 844 844 844 844 844
788 790 795 795 794 798 798 799 803 796 776 767 769 769 767 777 790 791 778 766 765 767 767 767 771 772 773 776 776 775 776 778 779 782 787 790 791 793 794 795 796 798 800 803 805 807 809 810 811 813 814 815 816 817 818 819 821 823 825 826 828 830 831 833 834 834 835 836 836 837 837 837 838 838 839 841 842 842 844 844 844 844 844 844 844 844
781 786 793 792 791 796 798 800 806 798 775 763 768 771 771 777 780 771 762 764 766 763 763 767 769 770 773 774 775 775 776 778 781 783 786 789 790 791 794 795 796 798 801 803 806 807 809 810 811 813 814 815 816 817 818 819 821 824 826 827 829 831 832 833 834 834 835 836 836 837 837 837 838 839 840 842 842 843 844 844 845 844 844 845 845 844
774 780 787 785 783 790 796 796 789 777 763 759 764 767 767 765 762 759 761 764 764 762 763 765 766 769 771 771 775 778 777 779 782 784 787 790 791 792 794 795 796 798 800 802 805 807 808 810 812 813 814 815 816 817 818 818 821 824 826 827 830 831 832 833 834 834 835 836 836 837 837 838 839 840 841 842 842 843 844 844 844 844 845 845 845 845
768 766 769 771 772 776 778 773 765 758 758 758 757 757 758 757 757 759 760 761 762 762 762 762 765 769 769 770 773 776 776 780 783 784 786 789 790 792 794 795 796 798 800 802 805 806 808 810 811 813 815 816 816 818 818 819 820 823 826 828 830 830 831 832 833 834 835 835 836 837 838 838 840 841 842 842 843 843 843 844 844 844 845 846 845 846
760 759 760 762 765 767 765 761 759 758 759 757 754 753 753 754 755 757 758 759 760 760 759 761 764 767 768 769 771 774 777 779 781 784 786 788 790 792 793 795 797 798 800 803 805 806 807 809 811 812 815 816 817 818 819 819 820 822 825 828 829 830 831 832 832 833 835 836 836 837 838 839 840 841 842 843 843 843 843 844 844 844 846 846 846 846
758 758 760 762 765 769 768 762 757 756 757 755 754 753 753 753 753 754 756 756 756 757 759 760 761 765 767 767 768 773 777 777 780 784 786 787 790 792 793 795 797 798 799 801 803 805 806 808 810 812 814 816 817 818 819 820 821 822 825 827 829 830 830 831 832 833 835 836 837 838 838 839 840 841 842 843 843 843 844 844 844 845 846 846 847 847
760 757 760 764 765 766 765 759 754 756 756 754 754 754 753 753 753 752 752 753 753 755 758 758 760 763 766 766 767 771 775 777 779 782 784 786 788 790 792 794 796 797 799 800 801 803 804 806 809 811 812 814 816 817 819 820 822 823 825 827 828 829 830 831 832 833 835 836 837 837 838 839 840 841 842 843 844 844 844 845 845 845 846 847 847 847
759 759 761 763 763 763 761 758 758 761 760 757 755 755 753 752 751 751 751 751 752 755 758 759 760 761 762 764 766 768 773 777 777 778 782 785 786 788 790 791 793 795 796 798 799 800 802 804 807 809 810 812 815 816 818 820 822 824 825 826 828 829 830 831 832 834 835 836 836 837 838 839 840 841 841 843 843 844 845 845 846 846 846 847 848 848
759 762 762 764 767 767 761 757 757 761 761 757 752 751 751 751 750 751 751 751 751 753 756 759 761 761 761 762 764 766 771 774 775 776 779 781 783 786 787 789 791 793 794 795 797 798 799 802 804 806 809 811 813 816 818 819 822 823 824 826 828 828 829 831 832 834 835 835 836 837 838 839 840 841 841 842 843 844 845 846 847 847 847 847 848 848
756 758 758 762 766 763 755 752 753 755 755 751 747 746 748 750 750 750 750 750 750 751 753 756 760 763 763 763 762 764 767 770 773 775 777 779 780 782 784 786 788 790 792 794 796 798 799 801 803 805 808 810 813 815 817 819 821 823 824 825 827 827 829 830 832 833 834 835 836 837 837 838 839 840 841 842 842 843 844 845 847 848 848 848 848 849